Weather History for KUKI - March, 2013

Change the Weather History Date:

Wednesday, March 20, 2013

  Actual Average Record
Temperature  
Mean Temperature 53 °F 52 °F  
Max Temperature 59 °F 64 °F 85 °F (1960)
Min Temperature 46 °F 40 °F 29 °F (1948)
Degree Days  
Heating Degree Days 12 13  
Month to date heating degree days 234 271  
Since 1 July heating degree days 2364 2504  
Cooling Degree Days 0 0  
Month to date cooling degree days 0 0  
Year to date cooling degree days 0 0  
Growing Degree Days 2 (Base 50)    
Moisture  
Dew Point 47 °F    
Average Humidity 82    
Maximum Humidity 93    
Minimum Humidity 71    
Precipitation  
Precipitation 0.34 in 0.15 in 1.73 in (1995)
Month to date precipitation 2.04 3.81  
Year to date precipitation 3.88 17.36  
Since 1 July precipitation 26.58  
Snow  
Snow 0.00 in - - ()
Month to date snowfall 0.0  
Since 1 July snowfall 0.0  
Snow Depth 0.00 in    
Sea Level Pressure  
Sea Level Pressure 30.07 in    
Wind  
Wind Speed 6 mph (SSE)    
Max Wind Speed 15 mph    
Max Gust Speed 22 mph    
Visibility 7 miles    
Events Rain    
T = Trace of Precipitation, MM = Missing Value Source: NWS Daily Summary

Daily Weather History Graph

Daily Weather History Graph

Search for Another Location

Airport or City:

Trip Planner

Search our weather history database for the weather conditions in past years. The results will help you decide how hot, cold, wet, or windy it might be!

Date:

Astronomy

Mar. 20, 2013 Rise Set
Actual Time 7:15 AM PDT 7:25 PM PDT
Civil Twilight 6:49 AM PDT 7:51 PM PDT
Nautical Twilight 6:17 AM PDT 8:23 PM PDT
Astronomical Twilight 5:46 AM PDT 8:54 PM PDT
Moon 1:07 PM PDT (3/20) 2:57 AM PDT (3/20)
Length of Visible Light 13h 02m
Length of Day
12h 09m
First Quarter, 60% of the Moon is Illuminated
Mar 20
First Quarter
Mar 27
Full
Apr 2
Last Quarter
Apr 10
New
Apr 18
First Quarter

Hourly Weather History & Observations

Time (PDT) Temp. Windchill Dew Point Humidity Pressure Visibility Wind Dir Wind Speed Gust Speed Precip Events Conditions
12:32 AM 46.4 °F - 44.6 °F 93% 30.09 in 5.0 mi Calm Calm - 0.02 in Rain Light Rain
12:56 AM 46.0 °F - 45.0 °F 96% 30.08 in 5.0 mi Calm Calm - 0.03 in Rain Light Rain
1:56 AM 46.9 °F - 45.0 °F 93% 30.07 in 10.0 mi South 9.2 mph - 0.00 in Rain Light Rain
2:56 AM 46.9 °F - 45.0 °F 93% 30.06 in 6.0 mi SSE 8.1 mph 16.1 mph 0.01 in Rain Light Rain
3:56 AM 48.0 °F - 46.0 °F 93% 30.04 in 10.0 mi South 10.4 mph - 0.00 in   Overcast
4:56 AM 48.0 °F - 45.0 °F 89% 30.03 in 6.0 mi South 11.5 mph 18.4 mph 0.01 in Rain Light Rain
5:56 AM 46.9 °F - 44.1 °F 90% 30.02 in 4.0 mi SSE 13.8 mph 20.7 mph 0.07 in Rain Light Rain
6:08 AM 46.4 °F 41.1 °F 44.6 °F 93% 30.03 in 2.5 mi SSE 11.5 mph 18.4 mph 0.03 in Rain Rain
6:17 AM 46.4 °F 40.7 °F 44.6 °F 93% 30.03 in 3.0 mi SSE 12.7 mph 19.6 mph 0.06 in Rain Rain
6:31 AM 46.4 °F 41.9 °F 44.6 °F 93% 30.03 in 4.0 mi SSE 9.2 mph - 0.09 in Rain Light Rain
6:43 AM 46.4 °F 41.5 °F 44.6 °F 93% 30.03 in 3.0 mi SSE 10.4 mph 17.3 mph 0.10 in Rain Light Rain
6:50 AM 46.4 °F 41.1 °F 44.6 °F 93% 30.04 in 3.0 mi SSE 11.5 mph - 0.11 in Rain Rain
6:56 AM 46.9 °F - 44.1 °F 90% 30.03 in 4.0 mi SSE 9.2 mph - 0.12 in Rain Light Rain
7:04 AM 46.4 °F 42.4 °F 44.6 °F 93% 30.04 in 4.0 mi South 8.1 mph - 0.01 in Rain Light Rain
7:45 AM 46.4 °F 44.3 °F 44.6 °F 93% 30.05 in 2.5 mi SSE 4.6 mph - 0.05 in Rain Light Rain
7:56 AM 46.9 °F - 45.0 °F 93% 30.05 in 2.0 mi SSE 3.5 mph - 0.07 in Rain Rain
8:12 AM 46.4 °F 45.2 °F 46.4 °F 100% 30.06 in 5.0 mi South 3.5 mph - 0.01 in Rain Light Rain
8:32 AM 48.2 °F - 44.6 °F 87% 30.06 in 6.0 mi South 6.9 mph - 0.01 in Rain Light Rain
8:56 AM 48.0 °F - 46.0 °F 93% 30.06 in 3.0 mi South 5.8 mph - 0.02 in Rain Light Rain
9:05 AM 48.2 °F - 46.4 °F 93% 30.07 in 6.0 mi South 5.8 mph - 0.00 in   Overcast
9:17 AM 48.2 °F - 46.4 °F 93% 30.07 in 6.0 mi South 4.6 mph - 0.00 in Rain Light Rain
9:56 AM 50.0 °F - 46.9 °F 89% 30.07 in 10.0 mi SSE 5.8 mph - 0.00 in   Overcast
10:56 AM 51.1 °F - 46.9 °F 86% 30.07 in 10.0 mi SSE 9.2 mph - N/A   Overcast
11:56 AM 53.1 °F - 48.9 °F 86% 30.07 in 10.0 mi SSE 6.9 mph - N/A   Overcast
12:30 PM 53.6 °F - 50.0 °F 88% 30.08 in 4.0 mi South 8.1 mph - N/A   Overcast
12:46 PM 53.6 °F - 50.0 °F 88% 30.08 in 9.0 mi South 5.8 mph - N/A   Overcast
12:56 PM 55.9 °F - 51.1 °F 84% 30.07 in 10.0 mi SSE 4.6 mph - N/A   Overcast
1:56 PM 55.9 °F - 50.0 °F 80% 30.07 in 4.0 mi South 4.6 mph - 0.01 in Rain Light Rain
2:03 PM 55.4 °F - 51.8 °F 88% 30.08 in 3.0 mi SSE 4.6 mph - 0.00 in Rain Light Rain
2:31 PM 57.2 °F - 51.8 °F 82% 30.07 in 10.0 mi Calm Calm - 0.00 in   Overcast
2:56 PM 55.9 °F - 51.1 °F 84% 30.06 in 2.0 mi Calm Calm - 0.01 in Rain Light Rain
3:05 PM 55.4 °F - 51.8 °F 88% 30.06 in 3.0 mi Calm Calm - 0.01 in Rain Light Rain
3:15 PM 57.2 °F - 51.8 °F 82% 30.06 in 7.0 mi Calm Calm - 0.01 in Rain Light Rain
3:56 PM 57.0 °F - 53.1 °F 87% 30.05 in 4.0 mi Calm Calm - 0.01 in Rain Light Rain
4:12 PM 57.2 °F - 53.6 °F 88% 30.06 in 10.0 mi Calm Calm - 0.00 in   Overcast
4:36 PM 57.2 °F - 53.6 °F 88% 30.06 in 8.0 mi Calm Calm - 0.01 in Rain Light Rain
4:56 PM 57.9 °F - 51.1 °F 78% 30.05 in 10.0 mi Calm Calm - 0.01 in   Mostly Cloudy
5:17 PM 59.0 °F - 51.8 °F 77% 30.06 in 10.0 mi North 5.8 mph - N/A   Mostly Cloudy
5:24 PM 57.2 °F - 51.8 °F 82% 30.07 in 10.0 mi NNW 5.8 mph - N/A   Mostly Cloudy
5:36 PM 57.2 °F - 50.0 °F 77% 30.07 in 10.0 mi North 6.9 mph - N/A   Mostly Cloudy
5:56 PM 55.9 °F - 50.0 °F 80% 30.06 in 10.0 mi North 6.9 mph - N/A   Overcast
6:18 PM 55.4 °F - 48.2 °F 77% 30.08 in 10.0 mi North 8.1 mph - N/A   Mostly Cloudy
6:31 PM 55.4 °F - 48.2 °F 77% 30.08 in 10.0 mi NNW 10.4 mph - N/A   Overcast
6:56 PM 53.1 °F - 46.9 °F 80% 30.09 in 10.0 mi NW 5.8 mph - N/A   Overcast
7:56 PM 52.0 °F - 45.0 °F 77% 30.10 in 10.0 mi NW 6.9 mph - N/A   Mostly Cloudy
8:52 PM 51.8 °F - 44.6 °F 76% 30.12 in 10.0 mi North 6.9 mph - N/A   Overcast
8:56 PM 51.1 °F - 44.1 °F 77% 30.12 in 10.0 mi North 5.8 mph - N/A   Overcast
9:43 PM 48.2 °F - 41.0 °F 76% 30.15 in 10.0 mi NW 11.5 mph - N/A   Scattered Clouds
9:56 PM 48.0 °F - 39.9 °F 74% 30.14 in 10.0 mi WNW 10.4 mph - N/A   Clear
10:56 PM 46.0 °F 43.9 °F 39.9 °F 79% 30.16 in 10.0 mi East 4.6 mph - N/A   Scattered Clouds
11:06 PM 46.4 °F 45.2 °F 39.2 °F 76% 30.16 in 10.0 mi East 3.5 mph - N/A   Mostly Cloudy
11:56 PM 46.0 °F 44.8 °F 41.0 °F 83% 30.16 in 10.0 mi SSE 3.5 mph - N/A   Overcast